Location: Kitchener
(43.4500°N, 80.5000°W)
Time: 22:12:12
(UTC-04:00)

ATLAS 5 CENTAUR R/B - Visible Passes

Search period start: 07 July 2015 00:00
Search period end: 17 July 2015 00:00
Orbit: 692 x 970 km, 63.4° (Epoch: 05 July)

Date Brightness Start Highest point End Pass type
(mag) Time Alt. Az. Time Alt. Az. Time Alt. Az.
07 Jul 2.3 01:22:09 10° NW 01:28:11 84° SW 01:29:55 50° SSE visible
07 Jul 4.1 03:08:50 10° WNW 03:11:26 15° W 03:11:26 15° W visible
07 Jul 4.1 23:19:13 10° NNW 23:23:55 24° NE 23:28:54 10° E visible
08 Jul 2.3 01:03:23 10° NW 01:09:25 87° SW 01:11:10 50° SSE visible
08 Jul 4.1 02:49:52 10° WNW 02:52:42 16° W 02:52:42 16° W visible
08 Jul 4.1 23:00:29 10° NNW 23:05:06 24° NE 23:10:00 10° E visible
09 Jul 2.3 00:44:37 10° NW 00:50:39 89° NE 00:52:30 49° SE visible
09 Jul 4.1 02:30:55 10° WNW 02:34:02 17° W 02:34:02 17° W visible
09 Jul 4.2 22:41:45 10° NNW 22:46:16 23° NNE 22:51:06 10° E visible
10 Jul 2.3 00:25:52 10° NW 00:31:53 85° NE 00:33:55 46° SE visible
10 Jul 4.0 02:12:00 10° WNW 02:15:27 18° WSW 02:15:27 18° WSW visible
10 Jul 4.2 22:23:01 10° NNW 22:27:27 22° NNE 22:32:11 10° E visible
11 Jul 2.4 00:07:06 10° NW 00:13:06 81° NE 00:15:23 42° SE visible
11 Jul 4.0 01:53:06 10° WNW 01:56:55 19° WSW 01:56:55 19° WSW visible
11 Jul 4.2 22:04:17 10° NNW 22:08:38 21° NNE 22:13:16 10° E visible
11 Jul 2.4 23:48:20 10° NW 23:54:20 78° NE 23:56:55 38° SE visible
12 Jul 3.9 01:34:12 10° WNW 01:38:27 21° WSW 01:38:27 21° WSW visible
12 Jul 4.2 21:45:33 10° NNW 21:49:49 21° NNE 21:54:21 10° E visible
12 Jul 2.4 23:29:34 10° NNW 23:35:33 74° NE 23:38:29 33° SE visible
13 Jul 3.8 01:15:19 10° WNW 01:19:57 22° WSW 01:20:02 22° WSW visible
13 Jul 2.5 23:10:49 10° NNW 23:16:47 71° NE 23:20:08 29° SE visible
14 Jul 3.8 00:56:27 10° WNW 01:01:12 23° WSW 01:01:40 23° WSW visible
14 Jul 2.5 22:52:03 10° NNW 22:58:00 67° NE 23:01:48 25° SE visible
15 Jul 3.7 00:37:36 10° WNW 00:42:28 25° WSW 00:43:21 24° SW visible
15 Jul 2.6 22:33:18 10° NNW 22:39:13 64° NE 22:43:32 21° SE visible
16 Jul 3.7 00:18:44 10° WNW 00:23:43 26° WSW 00:25:06 24° SW visible
16 Jul 2.6 22:14:32 10° NNW 22:20:26 61° NE 22:25:19 17° SE visible
